SCP
0 0 0 0 0 0 0 0 0 0 0 0 0 0 0 0 0 0 0 0 0 0 0 0 0 0 0 0 1 1 1 1 2 3 3 2 2 2 1 1 1 1 1 1
0 0 0 0 0 0 0 0 0 0 0 0 0 0 0 0 0 0 0 0 0 0 0 0 0 0 0 1 1 1 1 1 2 2 2 2 2 2 2 1 1 1 1 1
0 0 0 0 0 0 0 0 0 0 0 0 0 0 0 0 0 0 0 0 0 0 0 0 0 0 1 1 0 0 1 1 1 1 2 2 2 2 1 1 1 1 1 1
0 0 0 0 0 0 0 0 0 0 0 0 0 0 0 0 0 0 0 0 0 0 0 0 0 0 0 0 0 0 1 1 1 1 1 1 1 1 1 1 1 1 1 1
0 0 0 0 0 0 0 0 0 0 0 0 0 0 0 0 0 0 0 0 0 0 0 0 0 0 0 0 0 1 1 1 1 1 1 1 1 1 1 2 2 1 1 1
0 0 0 0 0 0 0 0 0 0 0 0 0 0 0 0 0 0 0 0 0 0 0 0 0 0 0 0 0 1 1 1 1 1 1 1 2 2 2 2 2 2 2 1
0 0 0 0 0 0 0 0 0 0 0 0 0 0 0 0 0 0 0 0 0 0 0 0 0 0 0 0 0 0 1 1 1 1 1 1 2 2 2 2 2 2 2 2
0 0 0 0 0 0 0 0 0 0 0 0 0 0 0 0 0 0 0 0 0 0 0 0 0 0 0 0 0 0 0 1 1 1 1 1 1 1 2 2 2 2 2 1
0 0 0 0 0 0 0 0 0 0 0 0 0 0 0 0 0 0 0 0 0 0 0 0 0 0 0 0 0 0 0 0 1 1 1 1 1 1 1 1 2 2 1 1
0 0 0 0 0 0 0 0 0 0 0 0 0 0 0 0 0 0 0 0 0 0 0 0 0 0 0 0 0 0 0 0 0 1 1 1 1 1 1 1 1 1 1 1
0 0 0 0 0 0 0 0 0 0 0 0 0 0 0 0 0 0 0 0 0 0 0 0 0 0 0 0 0 0 0 0 0 1 1 1 1 1 1 1 1 1 1 1
0 0 0 0 0 0 0 0 0 0 0 0 0 0 0 0 0 0 0 0 0 0 0 0 0 0 0 0 0 0 0 0 0 1 1 1 1 1 0 0 0 0 0 0
0 0 0 0 0 0 0 0 0 0 0 0 0 0 0 0 0 0 0 0 0 0 0 0 0 0 0 0 0 0 0 0 1 1 1 0 0 0 0 0 0 0 0 0
0 0 0 0 0 0 0 0 0 0 0 0 0 0 0 0 0 0 0 0 0 0 0 0 0 0 0 0 0 0 0 0 1 1 0 0 0 0 0 0 0 0 0 0
0 0 0 0 0 0 0 0 0 0 0 0 0 0 0 0 0 0 0 0 0 0 0 0 0 0 0 0 0 0 0 0 0 0 0 0 0 0 0 0 0 0 0 0
0 0 0 0 0 0 0 0 0 0 0 0 0 0 0 0 0 0 0 0 0 0 0 0 0 0 0 0 0 0 0 0 0 0 0 0 0 0 0 0 0 0 0 0
0 0 0 0 0 0 0 0 0 0 0 0 0 0 0 0 0 0 0 0 0 0 0 0 0 0 0 0 0 0 0 0 0 0 0 0 0 0 0 0 0 0 0 0
0 0 0 0 0 0 0 0 0 0 0 0 0 0 0 0 0 0 0 0 0 0 0 0 0 0 0 0 0 0 0 0 0 0 0 0 0 0 0 0 0 0 0 0
0 0 0 0 0 0 0 0 0 0 0 0 0 0 0 0 0 0 0 0 0 0 0 0 0 0 0 0 0 0 0 0 0 0 0 0 0 0 0 0 0 0 0 0
0 0 0 0 0 0 0 0 0 0 0 0 0 0 0 0 0 0 0 0 0 0 0 0 0 0 0 0 0 0 0 0 0 0 0 0 0 0 0 0 0 0 0 0
0 0 0 0 0 0 0 0 0 0 0 0 0 0 0 0 0 0 0 0 0 0 0 0 0 0 0 0 0 0 0 0 0 0 0 0 0 0 0 0 0 0 0 0
0 0 0 0 0 0 0 0 0 0 0 0 0 0 0 0 0 0 0 0 0 0 0 0 0 0 0 0 0 0 0 0 0 0 0 0 0 0 0 0 0 0 0 0
0 0 0 0 0 0 0 0 0 0 0 0 0 0 0 0 0 0 0 0 0 0 0 0 0 0 0 0 0 0 0 0 0 0 0 0 0 0 0 0 0 0 0 0
0 0 0 0 0 0 0 0 0 0 0 0 0 0 0 0 0 0 0 0 0 0 0 0 0 0 0 0 0 0 0 0 0 0 0 0 0 0 0 0 0 0 0 0
0 0 0 0 0 0 0 0 0 0 0 0 0 0 0 0 0 0 0 0 0 0 0 0 0 0 0 0 0 0 0 0 0 0 0 0 0 0 0 0 0 0 0 0
0 0 0 0 0 0 0 0 0 0 0 0 0 0 0 0 0 0 0 0 0 0 0 0 0 0 0 0 0 0 0 0 0 0 0 0 0 0 0 0 0 0 0 0
Wind_Speed
4 5 7 9 10 7 5 7 7 6 4 5 8 10 10 9 9 10 9 9 9 9 7 6 6 6 5 6 8 10 10 10 9 7 7 7 7 6 6 6 8 9 9 10
5 7 8 7 8 8 8 7 6 5 4 5 7 9 9 9 10 8 8 8 8 7 7 7 6 6 6 7 8 9 9 10 10 8 7 6 5 5 5 5 7 9 9 9
6 3 2 5 7 8 8 8 6 5 3 5 6 6 7 7 7 6 6 7 7 8 8 7 6 6 6 7 8 8 9 9 9 8 5 4 3 3 4 6 6 8 9 9
5 4 5 5 6 7 6 6 7 6 5 3 4 3 2 5 6 6 6 6 6 6 6 6 6 6 6 6 6 8 9 9 9 9 8 8 7 6 6 5 5 5 7 8
3 2 3 4 4 6 4 3 4 5 4 2 3 3 0 2 4 5 5 6 5 5 5 5 5 4 4 4 5 7 8 8 8 8 9 9 7 5 4 4 6 6 5 6
4 3 2 2 1 3 2 3 3 2 3 2 2 3 1 2 3 3 4 4 4 4 4 3 3 3 3 3 4 5 6 7 7 8 9 9 9 8 7 7 7 5 4 4
1 1 1 1 1 3 3 3 3 3 2 0 1 2 2 6 6 5 3 1 1 2 2 3 3 2 2 3 3 3 5 6 6 7 7 8 9 9 9 8 8 7 5 5
1 1 1 0 0 2 3 2 2 1 3 3 1 0 4 7 7 5 3 3 4 4 4 5 4 3 3 2 2 2 4 4 5 6 5 5 7 6 6 8 7 7 6 6
1 2 1 1 1 2 2 1 3 2 1 2 2 1 2 7 9 9 7 7 7 6 6 6 6 5 5 4 3 2 2 3 3 3 4 4 5 5 6 6 6 5 5 6
1 1 2 1 1 1 1 1 2 1 0 3 3 2 4 8 9 8 8 9 8 8 8 7 7 7 6 5 4 4 3 3 3 3 3 2 3 3 4 5 6 6 6 7
1 0 1 1 1 1 0 0 1 1 3 1 3 4 6 5 5 5 7 8 8 9 9 8 8 7 7 6 6 5 4 4 3 2 1 2 2 2 3 4 5 6 6 8
0 1 1 1 1 2 2 2 2 2 2 3 2 5 6 4 4 5 7 8 9 9 9 8 8 8 8 8 7 6 6 5 4 3 2 1 1 1 2 3 4 5 6 7
1 1 1 3 3 1 1 1 1 1 1 1 2 5 5 6 7 7 8 8 8 9 9 9 9 9 9 8 8 7 7 6 5 3 2 2 1 1 2 2 3 5 6 6
1 2 2 2 3 1 1 2 1 0 1 2 2 4 3 4 5 6 7 7 8 9 10 10 9 9 9 8 8 7 7 6 5 4 2 1 0 0 1 2 3 4 5 6
1 2 2 3 2 1 2 2 2 1 1 1 3 3 2 2 3 4 5 6 8 9 10 10 9 9 9 9 8 8 7 7 6 4 3 2 2 1 1 2 3 4 4 5
2 2 1 2 3 2 2 3 2 2 1 2 2 2 3 3 4 5 5 5 7 8 8 9 9 9 9 9 9 8 8 7 6 5 4 3 2 1 1 2 3 4 5 5
1 1 0 1 2 1 1 3 1 1 1 1 1 2 2 2 3 3 4 4 5 6 7 8 8 8 8 9 8 8 8 7 6 5 4 4 3 2 2 2 4 5 6 6
1 2 1 1 0 1 3 3 1 0 1 1 1 2 1 2 3 3 4 4 5 6 7 7 7 8 8 8 8 7 7 6 6 5 5 4 4 4 3 3 4 5 5 6
1 1 1 0 1 1 2 1 0 1 0 0 1 1 2 3 3 2 3 4 4 5 6 6 7 7 7 7 8 7 6 6 6 6 6 5 5 5 4 5 5 5 5 6
3 1 1 1 2 2 3 3 1 3 2 2 2 2 2 2 3 1 2 4 5 5 6 6 7 7 7 8 8 7 7 7 7 7 7 7 6 6 6 6 5 5 5 6
2 2 2 3 3 2 2 0 2 4 2 4 3 2 2 1 2 3 3 4 5 5 6 6 7 6 7 7 7 7 7 8 8 8 8 7 6 6 6 5 5 5 5 5
3 3 4 4 4 2 3 3 3 2 3 3 2 2 1 1 2 2 3 4 5 6 6 7 7 7 7 7 7 7 8 8 8 8 8 8 7 6 5 5 5 5 6 6
4 3 2 3 1 3 2 1 1 1 2 2 1 1 1 2 3 4 5 5 6 6 7 7 7 8 7 7 7 8 8 8 8 9 9 8 7 6 5 5 5 5 6 6
3 2 3 4 4 3 3 3 2 2 2 2 1 1 2 3 4 5 5 6 6 7 7 7 8 9 9 8 8 8 9 8 9 9 9 7 7 6 6 5 5 5 6 6
3 5 4 5 3 2 4 5 4 3 3 2 1 2 3 4 5 6 6 7 7 7 7 7 8 9 10 10 9 9 8 8 9 9 8 7 7 6 6 6 6 7 7 7
6 7 6 4 3 4 3 4 5 5 4 3 3 3 4 4 6 7 7 7 7 8 8 8 9 10 10 10 10 9 8 8 9 9 8 6 6 6 6 6 6 8 9 11
Wind_Direction
198 221 226 223 224 244 255 255 251 255 256 248 243 251 251 251 245 236 219 208 208 207 196 189 193 198 189 203 210 207 203 199 192 185 183 186 191 188 189 192 198 199 196 194
212 237 247 247 232 233 238 244 247 259 243 242 251 258 255 251 245 237 221 208 203 190 185 181 181 186 192 207 214 208 208 207 199 196 190 191 186 188 191 193 199 201 201 198
237 271 258 227 214 216 229 236 237 237 269 251 254 264 245 237 235 235 232 221 210 195 186 179 174 183 191 202 212 209 211 212 206 201 188 173 167 177 188 193 198 203 204 202
261 273 242 231 226 221 234 234 234 228 226 225 230 261 237 225 223 225 231 222 215 202 192 184 179 184 194 206 209 214 208 208 204 198 198 195 196 204 201 196 192 194 205 204
268 268 248 240 243 221 230 221 216 219 225 246 240 248 150 190 218 229 235 226 216 208 192 177 172 178 186 188 196 205 203 205 203 200 202 205 209 208 194 187 188 190 194 197
265 266 276 275 262 209 193 150 162 198 229 241 259 238 89 53 309 284 250 227 211 205 180 159 140 147 161 164 181 191 192 196 197 196 201 205 207 197 190 190 191 191 189 188
328 208 225 235 145 155 185 180 165 165 187 205 356 237 40 12 351 325 306 272 169 158 140 111 94 107 124 140 153 171 174 184 185 189 200 204 207 203 202 195 195 191 187 188
346 36 17 322 306 148 187 268 301 173 154 127 154 84 37 17 12 17 35 68 87 90 87 78 68 62 68 81 98 140 168 170 173 181 189 194 201 204 203 199 193 193 191 188
347 37 52 324 300 179 186 234 307 335 101 119 114 87 69 28 31 39 55 64 67 71 71 67 55 47 40 42 48 81 135 142 143 155 166 179 190 195 196 191 191 192 188 177
324 62 29 324 205 93 296 300 262 272 161 107 106 68 22 2 12 28 44 54 60 61 60 59 54 49 42 42 44 54 74 102 111 129 143 167 181 188 188 184 189 188 182 176
273 10 57 72 16 355 356 111 335 28 349 356 115 76 19 350 8 37 47 48 52 54 53 50 50 49 44 43 46 48 51 60 66 73 108 145 151 167 175 181 182 181 179 178
245 315 54 21 357 307 316 349 322 343 48 8 73 72 23 33 55 65 65 60 57 56 54 54 53 51 45 42 39 39 43 46 43 38 42 64 92 148 172 179 178 177 175 175
189 219 153 150 148 105 360 15 357 22 65 37 64 90 51 63 69 68 68 65 63 58 53 50 46 41 35 33 32 31 32 30 27 25 31 47 70 157 177 182 178 176 174 171
167 35 359 36 42 6 7 29 30 10 45 81 71 105 85 67 70 64 61 61 60 54 47 41 38 34 29 26 25 23 22 18 13 10 11 17 345 254 202 189 182 180 177 172
355 72 62 45 27 34 39 35 53 59 0 51 94 103 100 89 80 67 61 59 54 46 39 33 28 25 22 20 18 16 12 8 1 354 349 345 333 286 203 193 187 180 179 176
31 97 99 66 40 39 45 24 28 37 49 113 119 98 64 78 77 66 54 51 46 38 29 22 17 15 14 11 6 3 3 359 350 343 335 332 317 289 226 204 191 185 182 177
73 113 69 70 344 271 43 4 333 60 30 304 246 78 104 102 79 61 48 44 36 24 15 10 5 3 0 358 354 352 350 348 345 340 332 323 307 283 254 220 204 197 191 184
127 111 83 48 245 216 60 35 339 141 68 7 38 67 108 111 97 69 41 34 24 10 1 359 354 351 349 346 345 341 341 341 338 334 329 319 303 284 265 236 220 211 202 196
13 143 125 204 238 245 140 124 310 280 118 43 193 121 102 122 155 114 47 20 4 354 348 345 343 339 337 341 340 333 333 335 334 332 326 316 298 280 262 244 231 218 208 205
76 105 169 188 248 236 101 100 354 249 209 135 176 162 149 189 245 66 35 349 346 344 341 336 334 333 335 338 335 329 329 329 329 326 318 308 293 277 264 253 242 229 215 209
162 167 196 212 247 269 91 105 213 230 64 125 163 165 168 226 340 9 337 330 332 332 331 328 325 326 328 329 325 320 320 321 320 316 310 303 292 279 269 260 244 230 217 206
210 195 197 203 224 223 121 172 215 24 84 134 149 159 189 258 312 309 311 315 318 320 322 323 318 317 319 322 316 310 311 314 313 310 306 302 297 287 271 258 244 229 216 210
226 243 240 233 279 58 149 204 41 107 155 155 169 185 212 262 282 294 300 305 310 313 315 315 313 311 312 315 312 305 308 311 309 305 303 301 298 287 272 259 247 233 221 216
201 201 227 247 240 216 209 206 193 183 175 160 184 211 235 265 282 290 297 302 306 310 311 312 311 308 309 312 308 303 305 305 303 300 300 297 294 288 277 262 248 237 227 223
199 181 212 242 235 217 217 209 195 178 175 180 207 244 257 271 281 289 295 299 303 305 307 307 304 302 304 307 304 303 302 301 297 295 293 291 286 282 276 264 251 245 241 237
194 196 200 222 192 200 186 178 181 188 201 213 237 260 266 274 284 289 290 295 297 299 301 299 297 297 301 302 300 300 299 297 294 291 290 287 284 281 276 274 270 251 248 251